Regional Weather Roundup
Issued by NWS

Home | Current Version | Previous Version | Text Only | Print | Product List | Glossary On
Versions: 1 2 3 4 5 6 7 8 9 10 11 12 13 14 15 16 17 18 19 20 21 22 23 24 25 26 27 28 29 30 31 32 33 34 35 36 37 38 39 40 41 42 43 44 45 46 47 48 49 50
000
ASUS43 KBIS 231502
RWRND

NORTH DAKOTA REGIONAL WEATHER ROUNDUP
NATIONAL WEATHER SERVICE BISMARCK ND
1000 AM CDT SUN APR 23 2017

NOTE: "FAIR" INDICATES FEW OR NO CLOUDS BELOW 12,000 FEET WITH NO
SIGNIFICANT WEATHER AND/OR OBSTRUCTIONS TO VISIBILITY.


NDZ001>003-009>011-017-231600-
NORTHWEST NORTH DAKOTA

CITY           SKY/WX    TMP DP  RH WIND       PRES   REMARKS
WILLISTON      CLOUDY    31  24  75 E14G23    30.03F
MINOT          LGT SNOW  28  24  85 E14G23    30.11F WCI  17
MINOT AFB      MIX PCPN  28  24  84 E15       30.11F WCI  16
$$

NDZ018>021-031>035-040>046-231600-
SOUTHWEST NORTH DAKOTA

CITY           SKY/WX    TMP DP  RH WIND       PRES   REMARKS
BISMARCK       CLOUDY    35  29  78 E23G31    30.03F
DICKINSON      CLOUDY    29  26  89 E20       29.93F WCI  16
GARRISON         N/A     27  25  92 E23G35    30.05F WCI  12
HETTINGER ARPT CLOUDY    32  31  96 E16       29.92R
$$

NDZ004>008-012>016-024-026-027-054-231600-
NORTHEAST NORTH DAKOTA

CITY           SKY/WX    TMP DP  RH WIND       PRES   REMARKS
GRAND FORKS    CLOUDY    35  24  64 E15       30.21S
GRND FRKS AFB  CLOUDY    33  23  67 E16       30.21S
DEVILS LAKE    LGT SNOW  28  26  92 E16       30.17F FOG     WCI  16
$$

NDZ022-023-025-028>030-036>039-047>053-231600-
SOUTHEAST NORTH DAKOTA

CITY           SKY/WX    TMP DP  RH WIND       PRES   REMARKS
FARGO          CLOUDY    36  32  85 E16       30.14F
JAMESTOWN      CLOUDY    31  28  89 E15       30.10F
$$




USA.gov is the U.S. government's official web portal to all federal, state and local government web resources and services.